| time (UTC) | temp F | wind direction | speed MPH | gust MPH | rain 1hr in | rain 24hr in | rain mn in | humidity % | barometer mb |
| 20260831075927 | 74 | 34 | 1.0 | 2.0 | 0.00 | 0.05 | 0.00 | 81 | 1014.3 |
| 20260831075417 | 75 | 33 | 0.0 | 3.0 | 0.00 | 0.05 | 0.00 | 81 | 1014.4 |
| 20260831074931 | 75 | 32 | 1.0 | 3.0 | 0.00 | 0.05 | 0.00 | 80 | 1014.4 |
| 20260831074421 | 75 | 35 | 1.0 | 3.0 | 0.00 | 0.05 | 0.00 | 80 | 1014.4 |
| 20260831073926 | 75 | 38 | 1.0 | 4.0 | 0.00 | 0.05 | 0.00 | 79 | 1014.4 |
| 20260831073432 | 75 | 36 | 2.0 | 4.0 | 0.00 | 0.05 | 0.00 | 79 | 1014.5 |
| 20260831072940 | 75 | 38 | 2.0 | 4.0 | 0.00 | 0.05 | 0.00 | 79 | 1014.4 |
| 20260831072427 | 76 | 37 | 3.0 | 4.0 | 0.00 | 0.05 | 0.00 | 79 | 1014.5 |
| 20260831072003 | 76 | 32 | 1.0 | 3.0 | 0.00 | 0.05 | 0.00 | 79 | 1014.5 |
| 20260831071423 | 76 | 32 | 2.0 | 4.0 | 0.00 | 0.05 | 0.00 | 78 | 1014.5 |
| 20260831070931 | 76 | 32 | 2.0 | 4.0 | 0.00 | 0.05 | 0.00 | 78 | 1014.5 |
| 20260831070417 | 76 | 34 | 1.0 | 3.0 | 0.00 | 0.05 | 0.00 | 78 | 1014.6 |
| 20260831065926 | 76 | 34 | 2.0 | 3.0 | 0.00 | 0.05 | 0.00 | 77 | 1014.7 |
| 20260831065415 | 76 | 36 | 1.0 | 2.0 | 0.00 | 0.05 | 0.00 | 78 | 1014.8 |
| 20260831064951 | 76 | 34 | 1.0 | 2.0 | 0.00 | 0.05 | 0.00 | 78 | 1014.8 |
| 20260831064440 | 76 | 35 | 1.0 | 3.0 | 0.00 | 0.05 | 0.00 | 78 | 1014.7 |
| 20260831063925 | 76 | 38 | 1.0 | 3.0 | 0.00 | 0.05 | 0.00 | 77 | 1014.7 |
| 20260831063415 | 76 | 30 | 0.0 | 2.0 | 0.00 | 0.05 | 0.00 | 78 | 1014.7 |
| 20260831062925 | 76 | 30 | 1.0 | 2.0 | 0.00 | 0.05 | 0.00 | 78 | 1014.7 |
| 20260831062434 | 76 | 29 | 1.0 | 2.0 | 0.00 | 0.05 | 0.00 | 78 | 1014.7 |
| 20260831061942 | 76 | 28 | 1.0 | 3.0 | 0.00 | 0.05 | 0.00 | 79 | 1014.7 |
| 20260831061424 | 76 | 30 | 0.0 | 4.0 | 0.00 | 0.05 | 0.00 | 79 | 1014.6 |
| 20260831060932 | 76 | 40 | 1.0 | 5.0 | 0.00 | 0.05 | 0.00 | 79 | 1014.5 |
| 20260831060440 | 76 | 40 | 2.0 | 5.0 | 0.00 | 0.05 | 0.00 | 78 | 1014.5 |
| 20260831055930 | 76 | 40 | 2.0 | 6.0 | 0.00 | 0.05 | 0.00 | 79 | 1014.6 |
| 20260831055419 | 76 | 41 | 3.0 | 6.0 | 0.00 | 0.05 | 0.05 | 79 | 1014.5 |
| 20260831054927 | 76 | 40 | 2.0 | 5.0 | 0.00 | 0.05 | 0.05 | 79 | 1014.5 |
| 20260831054416 | 76 | 48 | 3.0 | 6.0 | 0.00 | 0.05 | 0.05 | 80 | 1014.4 |
| 20260831053927 | 76 | 44 | 2.0 | 6.0 | 0.00 | 0.05 | 0.05 | 81 | 1014.3 |
| 20260831053428 | 76 | 47 | 3.0 | 6.0 | 0.00 | 0.05 | 0.05 | 81 | 1014.3 |
| 20260831052915 | 76 | 50 | 4.0 | 7.0 | 0.00 | 0.05 | 0.05 | 82 | 1014.3 |
| 20260831052421 | 76 | 53 | 4.0 | 9.0 | 0.00 | 0.05 | 0.05 | 82 | 1014.2 |
| 20260831051928 | 76 | 130 | 5.0 | 9.0 | 0.00 | 0.05 | 0.05 | 83 | 1014.3 |
| 20260831051421 | 75 | 128 | 5.0 | 9.0 | 0.00 | 0.05 | 0.05 | 84 | 1014.3 |
| 20260831050931 | 75 | 124 | 4.0 | 9.0 | 0.00 | 0.05 | 0.05 | 84 | 1014.4 |
| 20260831050419 | 75 | 132 | 5.0 | 8.0 | 0.00 | 0.05 | 0.05 | 85 | 1014.3 |
| 20260831045929 | 75 | 134 | 5.0 | 8.0 | 0.00 | 0.05 | 0.05 | 85 | 1014.4 |
| 20260831045418 | 75 | 130 | 4.0 | 7.0 | 0.00 | 0.05 | 0.05 | 86 | 1014.4 |
| 20260831044924 | 75 | 130 | 4.0 | 7.0 | 0.00 | 0.05 | 0.05 | 87 | 1014.5 |
| 20260831044417 | 75 | 128 | 2.0 | 6.0 | 0.00 | 0.05 | 0.05 | 88 | 1014.5 |
| 20260831043925 | 75 | 121 | 3.0 | 6.0 | 0.00 | 0.05 | 0.05 | 88 | 1014.5 |
| 20260831043432 | 74 | 123 | 2.0 | 5.0 | 0.00 | 0.05 | 0.05 | 89 | 1014.5 |
| 20260831042920 | 74 | 124 | 3.0 | 8.0 | 0.00 | 0.05 | 0.05 | 89 | 1014.6 |
| 20260831042429 | 74 | 115 | 3.0 | 8.0 | 0.00 | 0.05 | 0.05 | 90 | 1014.7 |
| 20260831041917 | 74 | 123 | 3.0 | 7.0 | 0.00 | 0.05 | 0.05 | 90 | 1014.7 |
| 20260831041429 | 74 | 123 | 3.0 | 6.0 | 0.00 | 0.05 | 0.05 | 90 | 1014.7 |
| 20260831040918 | 74 | 123 | 3.0 | 5.0 | 0.00 | 0.05 | 0.05 | 91 | 1014.8 |
| 20260831040422 | 74 | 96 | 3.0 | 4.0 | 0.00 | 0.05 | 0.05 | 91 | 1014.8 |
| 20260831035914 | 74 | 101 | 2.0 | 3.0 | 0.00 | 0.05 | 0.05 | 91 | 1015.0 |
| 20260831035421 | 74 | 101 | 2.0 | 3.0 | 0.00 | 0.05 | 0.05 | 91 | 1015.1 |
| 20260831034931 | 74 | 96 | 1.0 | 3.0 | 0.00 | 0.05 | 0.05 | 92 | 1015.1 |
| 20260831034452 | 74 | 98 | 1.0 | 3.0 | 0.00 | 0.05 | 0.05 | 92 | 1015.3 |
| 20260831033938 | 74 | 102 | 2.0 | 3.0 | 0.00 | 0.05 | 0.05 | 92 | 1015.4 |
| 20260831033448 | 74 | 107 | 2.0 | 3.0 | 0.00 | 0.05 | 0.05 | 92 | 1015.5 |
| 20260831032915 | 75 | 107 | 0.0 | 3.0 | 0.00 | 0.05 | 0.05 | 92 | 1015.7 |
| 20260831032420 | 75 | 106 | 2.0 | 3.0 | 0.00 | 0.05 | 0.05 | 92 | 1015.8 |
| 20260831031928 | 75 | 114 | 0.0 | 2.0 | 0.00 | 0.05 | 0.05 | 91 | 1016.2 |
| 20260831031420 | 75 | 113 | 0.0 | 1.0 | 0.00 | 0.05 | 0.05 | 91 | 1016.2 |
| 20260831030957 | 75 | 123 | 0.0 | 1.0 | 0.00 | 0.05 | 0.05 | 91 | 1016.4 |
| 20260831030447 | 75 | 134 | 0.0 | 1.0 | 0.00 | 0.05 | 0.05 | 91 | 1016.3 |
| 20260831025917 | 75 | 134 | 0.0 | 1.0 | 0.00 | 0.05 | 0.05 | 91 | 1016.2 |
| 20260831025453 | 75 | 137 | 0.0 | 2.0 | 0.00 | 0.05 | 0.05 | 90 | 1016.0 |
| 20260831024922 | 75 | 136 | 0.0 | 2.0 | 0.00 | 0.05 | 0.05 | 90 | 1015.9 |
| 20260831024416 | 75 | 135 | 0.0 | 4.0 | 0.00 | 0.05 | 0.05 | 90 | 1015.9 |
| 20260831023953 | 75 | 134 | 1.0 | 4.0 | 0.00 | 0.05 | 0.05 | 90 | 1016.0 |
| 20260831023418 | 75 | 134 | 2.0 | 4.0 | 0.00 | 0.05 | 0.05 | 90 | 1016.0 |
| 20260831022923 | 75 | 132 | 2.0 | 3.0 | 0.00 | 0.05 | 0.05 | 90 | 1015.9 |
| 20260831022430 | 75 | 99 | 2.0 | 3.0 | 0.00 | 0.05 | 0.05 | 90 | 1015.9 |
| 20260831021941 | 75 | 135 | 1.0 | 2.0 | 0.00 | 0.05 | 0.05 | 90 | 1016.0 |
| 20260831021425 | 75 | 136 | 0.0 | 2.0 | 0.00 | 0.05 | 0.05 | 90 | 1016.1 |
| 20260831020915 | 75 | 135 | 0.0 | 3.0 | 0.00 | 0.05 | 0.05 | 91 | 1016.1 |
| 20260831020423 | 75 | 134 | 2.0 | 3.0 | 0.00 | 0.05 | 0.05 | 91 | 1016.0 |
| 20260831015916 | 75 | 117 | 1.0 | 2.0 | 0.00 | 0.05 | 0.05 | 91 | 1015.9 |
| 20260831015425 | 74 | 118 | 1.0 | 3.0 | 0.00 | 0.05 | 0.05 | 91 | 1015.8 |
| 20260831014930 | 75 | 118 | 1.0 | 3.0 | 0.00 | 0.05 | 0.05 | 91 | 1015.7 |
| 20260831014421 | 75 | 118 | 1.0 | 2.0 | 0.00 | 0.05 | 0.05 | 91 | 1015.8 |
| 20260831013928 | 75 | 117 | 0.0 | 0.0 | 0.00 | 0.05 | 0.05 | 91 | 1015.9 |
| 20260831013417 | 75 | 117 | 0.0 | 0.0 | 0.00 | 0.05 | 0.05 | 90 | 1015.8 |
| 20260831012928 | 75 | 117 | 0.0 | 1.0 | 0.00 | 0.05 | 0.05 | 90 | 1015.8 |
| 20260831012430 | 75 | 119 | 0.0 | 2.0 | 0.00 | 0.05 | 0.05 | 90 | 1015.8 |
| 20260831011940 | 75 | 116 | 0.0 | 0.0 | 0.00 | 0.05 | 0.05 | 90 | 1015.5 |
| 20260831011431 | 75 | 102 | 0.0 | 0.0 | 0.00 | 0.05 | 0.05 | 90 | 1015.6 |
| 20260831010918 | 75 | 96 | 0.0 | 1.0 | 0.00 | 0.05 | 0.05 | 89 | 1015.6 |
| 20260831010433 | 75 | 96 | 0.0 | 1.0 | 0.00 | 0.05 | 0.05 | 89 | 1015.4 |
| 20260831005921 | 75 | 95 | 0.0 | 3.0 | 0.00 | 0.05 | 0.05 | 89 | 1015.1 |
| 20260831005427 | 75 | 95 | 2.0 | 3.0 | 0.00 | 0.05 | 0.05 | 89 | 1015.0 |
| 20260831004937 | 75 | 123 | 2.0 | 4.0 | 0.00 | 0.05 | 0.05 | 90 | 1015.0 |
| 20260831004427 | 75 | 114 | 3.0 | 4.0 | 0.00 | 0.05 | 0.05 | 90 | 1014.9 |
| 20260831003916 | 75 | 86 | 2.0 | 4.0 | 0.00 | 0.05 | 0.05 | 90 | 1014.8 |
| 20260831003433 | 75 | 92 | 3.0 | 4.0 | 0.00 | 0.05 | 0.05 | 90 | 1014.9 |
| 20260831002937 | 75 | 98 | 2.0 | 4.0 | 0.00 | 0.05 | 0.05 | 90 | 1015.1 |
| 20260831002424 | 75 | 100 | 2.0 | 4.0 | 0.00 | 0.05 | 0.05 | 91 | 1015.4 |
| 20260831001933 | 75 | 122 | 0.0 | 3.0 | 0.00 | 0.05 | 0.05 | 90 | 1015.4 |
| 20260831001422 | 75 | 121 | 2.0 | 3.0 | 0.00 | 0.05 | 0.05 | 90 | 1015.4 |
| 20260831000930 | 75 | 120 | 1.0 | 3.0 | 0.00 | 0.05 | 0.05 | 90 | 1015.6 |
| 20260831000419 | 75 | 30 | 1.0 | 2.0 | 0.00 | 0.05 | 0.05 | 89 | 1015.7 |
| 20260830235956 | 76 | 27 | 0.0 | 2.0 | 0.00 | 0.05 | 0.05 | 89 | 1015.6 |
| 20260830235422 | 75 | 28 | 1.0 | 2.0 | 0.00 | 0.05 | 0.05 | 89 | 1015.8 |
| 20260830234929 | 76 | 29 | 0.0 | 0.0 | 0.00 | 0.05 | 0.05 | 89 | 1015.9 |
| 20260830234421 | 76 | 31 | 0.0 | 0.0 | 0.00 | 0.05 | 0.05 | 89 | 1015.9 |
| 20260830233930 | 76 | 30 | 0.0 | 1.0 | 0.00 | 0.05 | 0.05 | 89 | 1015.9 |
| 20260830233421 | 76 | 28 | 0.0 | 2.0 | 0.00 | 0.05 | 0.05 | 88 | 1015.9 |
| 20260830232948 | 76 | 30 | 1.0 | 3.0 | 0.00 | 0.05 | 0.05 | 88 | 1015.8 |
| 20260830232435 | 75 | 26 | 1.0 | 4.0 | 0.00 | 0.05 | 0.05 | 88 | 1015.5 |
| 20260830231942 | 75 | 26 | 3.0 | 4.0 | 0.00 | 0.05 | 0.05 | 88 | 1015.3 |
| 20260830231423 | 75 | 30 | 1.0 | 3.0 | 0.00 | 0.05 | 0.05 | 88 | 1015.6 |
| 20260830230931 | 76 | 28 | 2.0 | 3.0 | 0.00 | 0.05 | 0.05 | 88 | 1015.8 |
| 20260830230418 | 76 | 29 | 2.0 | 3.0 | 0.00 | 0.05 | 0.05 | 88 | 1015.6 |
| 20260830225928 | 76 | 30 | 1.0 | 2.0 | 0.00 | 0.05 | 0.05 | 89 | 1016.0 |
| 20260830225418 | 76 | 31 | 0.0 | 0.0 | 0.00 | 0.05 | 0.05 | 88 | 1016.2 |
| 20260830224929 | 76 | 31 | 0.0 | 0.0 | 0.00 | 0.05 | 0.05 | 88 | 1016.2 |
| 20260830224442 | 76 | 30 | 0.0 | 0.0 | 0.00 | 0.05 | 0.05 | 88 | 1016.3 |
| 20260830223948 | 76 | 31 | 0.0 | 0.0 | 0.00 | 0.05 | 0.05 | 88 | 1016.2 |
| 20260830223434 | 76 | 30 | 0.0 | 0.0 | 0.00 | 0.05 | 0.05 | 87 | 1016.3 |
| 20260830222941 | 76 | 31 | 0.0 | 0.0 | 0.00 | 0.05 | 0.05 | 87 | 1016.1 |
| 20260830222451 | 76 | 30 | 0.0 | 0.0 | 0.00 | 0.05 | 0.05 | 86 | 1015.9 |
| 20260830221938 | 76 | 30 | 0.0 | 0.0 | 0.00 | 0.05 | 0.05 | 86 | 1015.8 |
| 20260830221429 | 76 | 30 | 0.0 | 0.0 | 0.00 | 0.05 | 0.05 | 86 | 1015.9 |
| 20260830220938 | 76 | 29 | 0.0 | 0.0 | 0.00 | 0.05 | 0.05 | 86 | 1015.9 |
| 20260830220424 | 76 | 29 | 0.0 | 0.0 | 0.00 | 0.05 | 0.05 | 86 | 1015.7 |
| 20260830215937 | 76 | 28 | 0.0 | 0.0 | 0.00 | 0.05 | 0.05 | 85 | 1015.6 |
| 20260830215426 | 76 | 30 | 0.0 | 0.0 | 0.00 | 0.05 | 0.05 | 85 | 1015.6 |
| 20260830214934 | 76 | 31 | 0.0 | 2.0 | 0.00 | 0.05 | 0.05 | 85 | 1015.8 |
| 20260830214433 | 76 | 31 | 0.0 | 2.0 | 0.00 | 0.05 | 0.05 | 85 | 1015.8 |
| 20260830213940 | 76 | 30 | 1.0 | 3.0 | 0.00 | 0.05 | 0.05 | 85 | 1016.0 |
| 20260830213450 | 76 | 30 | 1.0 | 4.0 | 0.00 | 0.05 | 0.05 | 85 | 1016.0 |
| 20260830212917 | 76 | 30 | 2.0 | 4.0 | 0.00 | 0.05 | 0.05 | 86 | 1016.0 |
| 20260830212425 | 76 | 31 | 1.0 | 3.0 | 0.00 | 0.05 | 0.05 | 86 | 1016.1 |
| 20260830211934 | 76 | 31 | 1.0 | 3.0 | 0.00 | 0.05 | 0.05 | 86 | 1016.2 |
| 20260830211447 | 76 | 31 | 1.0 | 3.0 | 0.00 | 0.05 | 0.05 | 86 | 1016.3 |
| 20260830210934 | 76 | 33 | 1.0 | 3.0 | 0.00 | 0.05 | 0.05 | 86 | 1016.2 |
| 20260830210421 | 76 | 30 | 1.0 | 4.0 | 0.00 | 0.05 | 0.05 | 86 | 1016.3 |
| 20260830205933 | 75 | 30 | 2.0 | 4.0 | 0.00 | 0.05 | 0.05 | 86 | 1016.2 |
| 20260830205421 | 75 | 31 | 2.0 | 4.0 | 0.00 | 0.05 | 0.05 | 85 | 1016.2 |
| 20260830204931 | 75 | 27 | 1.0 | 4.0 | 0.00 | 0.05 | 0.05 | 86 | 1016.1 |
| 20260830204421 | 75 | 27 | 2.0 | 3.0 | 0.00 | 0.05 | 0.05 | 85 | 1016.0 |
| 20260830203922 | 75 | 34 | 1.0 | 3.0 | 0.00 | 0.05 | 0.05 | 86 | 1016.2 |
| 20260830203430 | 75 | 31 | 2.0 | 3.0 | 0.00 | 0.05 | 0.05 | 85 | 1016.1 |
| 20260830202936 | 75 | 32 | 1.0 | 3.0 | 0.00 | 0.05 | 0.05 | 83 | 1016.1 |
| 20260830202424 | 76 | 31 | 2.0 | 6.0 | 0.00 | 0.05 | 0.05 | 82 | 1016.2 |
| 20260830201930 | 76 | 33 | 2.0 | 6.0 | 0.00 | 0.05 | 0.05 | 81 | 1016.2 |
| 20260830201423 | 77 | 360 | 2.0 | 4.0 | 0.00 | 0.05 | 0.05 | 80 | 1016.4 |
| 20260830200932 | 77 | 360 | 2.0 | 4.0 | 0.00 | 0.05 | 0.05 | 79 | 1016.5 |
| 20260830200439 | 78 | 360 | 2.0 | 5.0 | 0.00 | 0.05 | 0.05 | 77 | 1016.5 |
| 20260830195929 | 78 | 360 | 2.0 | 4.0 | 0.00 | 0.05 | 0.05 | 77 | 1016.5 |
| 20260830195418 | 78 | 360 | 2.0 | 4.0 | 0.00 | 0.05 | 0.05 | 76 | 1016.6 |
| 20260830194923 | 78 | 360 | 1.0 | 3.0 | 0.00 | 0.05 | 0.05 | 76 | 1016.5 |
| 20260830194429 | 78 | 360 | 1.0 | 4.0 | 0.00 | 0.05 | 0.05 | 76 | 1016.3 |
| 20260830193918 | 78 | 360 | 2.0 | 5.0 | 0.00 | 0.05 | 0.05 | 75 | 1016.2 |
| 20260830193428 | 78 | 360 | 2.0 | 4.0 | 0.00 | 0.05 | 0.05 | 75 | 1016.3 |
| 20260830192917 | 78 | 360 | 2.0 | 3.0 | 0.00 | 0.05 | 0.05 | 75 | 1016.1 |
| 20260830192424 | 78 | 360 | 1.0 | 8.0 | 0.00 | 0.05 | 0.05 | 74 | 1016.2 |
| 20260830191929 | 79 | 360 | 2.0 | 8.0 | 0.00 | 0.05 | 0.05 | 74 | 1016.2 |
| 20260830191438 | 79 | 360 | 2.0 | 5.0 | 0.00 | 0.05 | 0.05 | 74 | 1016.1 |
| 20260830190946 | 79 | 360 | 2.0 | 6.0 | 0.00 | 0.05 | 0.05 | 74 | 1016.1 |
| 20260830190414 | 79 | 360 | 3.0 | 5.0 | 0.00 | 0.05 | 0.05 | 74 | 1015.9 |
| 20260830185925 | 79 | 360 | 2.0 | 8.0 | 0.00 | 0.05 | 0.05 | 74 | 1015.9 |
| 20260830185431 | 79 | 360 | 2.0 | 10.0 | 0.00 | 0.05 | 0.05 | 74 | 1015.8 |
| 20260830184936 | 79 | 360 | 3.0 | 10.0 | 0.00 | 0.05 | 0.05 | 72 | 1015.6 |
| 20260830184423 | 80 | 360 | 4.0 | 10.0 | 0.00 | 0.05 | 0.05 | 72 | 1015.6 |
| 20260830183934 | 80 | 360 | 4.0 | 11.0 | 0.00 | 0.05 | 0.05 | 72 | 1015.5 |
| 20260830183442 | 80 | 360 | 5.0 | 15.0 | 0.00 | 0.05 | 0.05 | 71 | 1015.3 |
| 20260830182930 | 81 | 154 | 6.0 | 15.0 | 0.00 | 0.05 | 0.05 | 71 | 1015.2 |
| 20260830182420 | 81 | 159 | 5.0 | 10.0 | 0.00 | 0.05 | 0.05 | 71 | 1015.1 |
| 20260830181928 | 81 | 221 | 4.0 | 12.0 | 0.00 | 0.05 | 0.05 | 70 | 1015.0 |
| 20260830181420 | 81 | 212 | 6.0 | 12.0 | 0.01 | 0.05 | 0.05 | 71 | 1015.1 |
| 20260830180927 | 81 | 234 | 5.0 | 12.0 | 0.01 | 0.05 | 0.05 | 70 | 1015.1 |
| 20260830180430 | 80 | 215 | 6.0 | 13.0 | 0.01 | 0.05 | 0.05 | 71 | 1015.1 |
| 20260830175918 | 80 | 213 | 5.0 | 14.0 | 0.01 | 0.05 | 0.05 | 72 | 1015.0 |
| 20260830175423 | 79 | 216 | 8.0 | 14.0 | 0.01 | 0.05 | 0.05 | 72 | 1015.1 |
| 20260830174931 | 79 | 240 | 6.0 | 13.0 | 0.01 | 0.05 | 0.05 | 72 | 1015.1 |
| 20260830174426 | 79 | 221 | 6.0 | 12.0 | 0.01 | 0.05 | 0.05 | 72 | 1015.3 |
| 20260830173932 | 79 | 248 | 4.0 | 11.0 | 0.01 | 0.05 | 0.05 | 72 | 1015.4 |
| 20260830173438 | 79 | 238 | 7.0 | 12.0 | 0.01 | 0.05 | 0.05 | 71 | 1015.6 |
| 20260830172930 | 79 | 215 | 6.0 | 11.0 | 0.01 | 0.05 | 0.05 | 71 | 1015.6 |
| 20260830172419 | 79 | 209 | 7.0 | 14.0 | 0.01 | 0.05 | 0.05 | 71 | 1015.6 |
| 20260830171927 | 79 | 190 | 6.0 | 14.0 | 0.01 | 0.05 | 0.05 | 72 | 1015.6 |
| 20260830171414 | 78 | 215 | 3.0 | 10.0 | 0.00 | 0.04 | 0.04 | 74 | 1015.6 |
| 20260830170922 | 78 | 360 | 6.0 | 10.0 | 0.00 | 0.04 | 0.04 | 74 | 1015.8 |
| 20260830170429 | 77 | 126 | 5.0 | 11.0 | 0.00 | 0.04 | 0.04 | 76 | 1015.5 |
| 20260830165919 | 77 | 360 | 5.0 | 11.0 | 0.00 | 0.04 | 0.04 | 76 | 1015.4 |
| 20260830165428 | 76 | 360 | 4.0 | 10.0 | 0.00 | 0.04 | 0.04 | 77 | 1015.4 |
| 20260830164917 | 76 | 360 | 6.0 | 14.0 | 0.00 | 0.04 | 0.04 | 76 | 1015.3 |
| 20260830164430 | 76 | 360 | 8.0 | 14.0 | 0.00 | 0.04 | 0.04 | 76 | 1015.4 |
| 20260830163938 | 76 | 360 | 5.0 | 13.0 | 0.00 | 0.04 | 0.04 | 75 | 1015.5 |
| 20260830163421 | 76 | 360 | 7.0 | 16.0 | 0.00 | 0.04 | 0.04 | 76 | 1015.5 |
| 20260830162929 | 76 | 125 | 9.0 | 16.0 | 0.00 | 0.04 | 0.04 | 75 | 1015.6 |
| 20260830162418 | 76 | 144 | 7.0 | 13.0 | 0.00 | 0.04 | 0.04 | 76 | 1015.5 |
| 20260830161927 | 76 | 229 | 5.0 | 10.0 | 0.00 | 0.04 | 0.04 | 77 | 1015.6 |
| 20260830161425 | 75 | 203 | 5.0 | 13.0 | 0.00 | 0.04 | 0.04 | 78 | 1015.8 |
| 20260830160931 | 75 | 166 | 7.0 | 13.0 | 0.00 | 0.04 | 0.04 | 78 | 1015.6 |
| 20260830160442 | 75 | 194 | 6.0 | 12.0 | 0.00 | 0.04 | 0.04 | 80 | 1015.8 |
| 20260830155923 | 74 | 229 | 5.0 | 12.0 | 0.00 | 0.04 | 0.04 | 80 | 1015.6 |
| 20260830155430 | 74 | 208 | 2.0 | 8.0 | 0.00 | 0.04 | 0.04 | 83 | 1015.8 |
| 20260830154917 | 74 | 186 | 5.0 | 9.0 | 0.00 | 0.04 | 0.04 | 82 | 1015.8 |
| 20260830154427 | 74 | 206 | 4.0 | 6.0 | 0.00 | 0.04 | 0.04 | 83 | 1015.6 |
| 20260830153914 | 73 | 157 | 4.0 | 11.0 | 0.00 | 0.04 | 0.04 | 85 | 1015.4 |
| 20260830153422 | 73 | 179 | 7.0 | 11.0 | 0.00 | 0.04 | 0.04 | 84 | 1015.4 |
| 20260830152947 | 72 | 218 | 6.0 | 10.0 | 0.00 | 0.04 | 0.04 | 86 | 1015.5 |
| 20260830152414 | 72 | 209 | 7.0 | 11.0 | 0.00 | 0.04 | 0.04 | 86 | 1015.4 |
| 20260830151923 | 71 | 360 | 4.0 | 9.0 | 0.00 | 0.04 | 0.04 | 87 | 1015.2 |
| 20260830151415 | 71 | 34 | 4.0 | 11.0 | 0.00 | 0.04 | 0.04 | 88 | 1015.0 |
| 20260830150923 | 71 | 360 | 3.0 | 11.0 | 0.00 | 0.04 | 0.04 | 88 | 1015.1 |
| 20260830150429 | 71 | 360 | 6.0 | 10.0 | 0.00 | 0.04 | 0.04 | 89 | 1015.3 |
| 20260830145916 | 70 | 360 | 5.0 | 10.0 | 0.00 | 0.04 | 0.04 | 90 | 1015.3 |
| 20260830145425 | 70 | 19 | 6.0 | 10.0 | 0.00 | 0.04 | 0.04 | 90 | 1015.3 |
| 20260830144934 | 70 | 25 | 4.0 | 10.0 | 0.00 | 0.04 | 0.04 | 91 | 1015.5 |
| 20260830144427 | 69 | 17 | 4.0 | 11.0 | 0.00 | 0.04 | 0.04 | 91 | 1015.5 |
| 20260830143916 | 69 | 19 | 6.0 | 11.0 | 0.00 | 0.04 | 0.04 | 91 | 1015.5 |
| 20260830143451 | 69 | 18 | 4.0 | 8.0 | 0.00 | 0.04 | 0.04 | 91 | 1015.6 |
| 20260830142918 | 69 | 19 | 4.0 | 8.0 | 0.00 | 0.04 | 0.04 | 92 | 1015.8 |
| 20260830142454 | 69 | 21 | 4.0 | 9.0 | 0.01 | 0.04 | 0.04 | 92 | 1015.7 |
| 20260830141921 | 69 | 20 | 4.0 | 9.0 | 0.01 | 0.04 | 0.04 | 92 | 1015.8 |
| 20260830141432 | 69 | 22 | 3.0 | 9.0 | 0.01 | 0.04 | 0.04 | 92 | 1015.8 |
| 20260830140920 | 68 | 20 | 3.0 | 9.0 | 0.01 | 0.04 | 0.04 | 92 | 1015.8 |
| 20260830140429 | 68 | 21 | 5.0 | 9.0 | 0.02 | 0.04 | 0.04 | 92 | 1016.1 |
| 20260830135920 | 68 | 19 | 4.0 | 9.0 | 0.02 | 0.04 | 0.04 | 92 | 1016.0 |
| 20260830135428 | 68 | 21 | 5.0 | 9.0 | 0.02 | 0.04 | 0.04 | 92 | 1016.0 |
| 20260830134934 | 68 | 20 | 5.0 | 9.0 | 0.03 | 0.04 | 0.04 | 92 | 1015.8 |
| 20260830134452 | 68 | 27 | 3.0 | 13.0 | 0.04 | 0.04 | 0.04 | 92 | 1015.9 |
| 20260830133920 | 68 | 30 | 5.0 | 11.0 | 0.04 | 0.04 | 0.04 | 92 | 1016.2 |
| 20260830133431 | 68 | 24 | 5.0 | 11.0 | 0.04 | 0.04 | 0.04 | 92 | 1016.3 |
| 20260830132919 | 68 | 24 | 4.0 | 10.0 | 0.04 | 0.04 | 0.04 | 92 | 1016.4 |
| 20260830132456 | 68 | 25 | 3.0 | 10.0 | 0.03 | 0.03 | 0.03 | 92 | 1016.4 |
| 20260830131943 | 68 | 23 | 3.0 | 8.0 | 0.03 | 0.03 | 0.03 | 91 | 1016.5 |
| 20260830131431 | 68 | 26 | 3.0 | 8.0 | 0.03 | 0.03 | 0.03 | 91 | 1016.4 |
| 20260830130935 | 68 | 25 | 4.0 | 6.0 | 0.03 | 0.03 | 0.03 | 91 | 1016.3 |
| 20260830130424 | 68 | 22 | 2.0 | 4.0 | 0.02 | 0.02 | 0.02 | 91 | 1016.7 |
| 20260830125917 | 68 | 26 | 2.0 | 4.0 | 0.02 | 0.02 | 0.02 | 90 | 1016.9 |
| 20260830125453 | 68 | 24 | 2.0 | 4.0 | 0.02 | 0.02 | 0.02 | 90 | 1017.0 |
| 20260830124921 | 69 | 24 | 1.0 | 4.0 | 0.01 | 0.01 | 0.01 | 90 | 1017.1 |
| 20260830124430 | 69 | 24 | 2.0 | 4.0 | 0.00 | 0.00 | 0.00 | 89 | 1017.2 |
| 20260830123933 | 69 | 26 | 2.0 | 4.0 | 0.00 | 0.00 | 0.00 | 89 | 1017.1 |
| 20260830123441 | 69 | 28 | 2.0 | 4.0 | 0.00 | 0.00 | 0.00 | 89 | 1017.0 |
| 20260830122951 | 69 | 30 | 1.0 | 5.0 | 0.00 | 0.00 | 0.00 | 89 | 1016.9 |
| 20260830122420 | 69 | 30 | 3.0 | 6.0 | 0.00 | 0.00 | 0.00 | 89 | 1016.7 |
| 20260830121924 | 69 | 32 | 3.0 | 6.0 | 0.00 | 0.00 | 0.00 | 89 | 1016.8 |
| 20260830121433 | 69 | 28 | 2.0 | 4.0 | 0.00 | 0.00 | 0.00 | 89 | 1016.9 |
| 20260830120919 | 68 | 32 | 2.0 | 3.0 | 0.00 | 0.00 | 0.00 | 89 | 1016.9 |
| 20260830120424 | 68 | 33 | 1.0 | 3.0 | 0.00 | 0.00 | 0.00 | 89 | 1016.8 |
| 20260830115914 | 68 | 33 | 2.0 | 4.0 | 0.00 | 0.00 | 0.00 | 89 | 1016.7 |
| 20260830115430 | 68 | 32 | 2.0 | 4.0 | 0.00 | 0.00 | 0.00 | 89 | 1016.6 |
| 20260830114918 | 68 | 34 | 2.0 | 3.0 | 0.00 | 0.00 | 0.00 | 88 | 1016.4 |
| 20260830114423 | 68 | 34 | 2.0 | 4.0 | 0.00 | 0.00 | 0.00 | 88 | 1016.3 |
| 20260830113928 | 68 | 33 | 2.0 | 4.0 | 0.00 | 0.00 | 0.00 | 87 | 1016.2 |
| 20260830113415 | 68 | 36 | 1.0 | 4.0 | 0.00 | 0.00 | 0.00 | 87 | 1016.3 |
| 20260830112928 | 69 | 36 | 1.0 | 4.0 | 0.00 | 0.00 | 0.00 | 87 | 1016.2 |
| 20260830112434 | 69 | 30 | 2.0 | 4.0 | 0.00 | 0.00 | 0.00 | 86 | 1016.0 |
| 20260830111921 | 69 | 28 | 2.0 | 5.0 | 0.00 | 0.00 | 0.00 | 85 | 1015.9 |
| 20260830111432 | 69 | 28 | 3.0 | 5.0 | 0.00 | 0.00 | 0.00 | 84 | 1015.8 |
| 20260830110922 | 70 | 30 | 2.0 | 5.0 | 0.00 | 0.00 | 0.00 | 83 | 1015.7 |
| 20260830110431 | 70 | 24 | 3.0 | 5.0 | 0.00 | 0.00 | 0.00 | 83 | 1015.6 |
| 20260830105938 | 70 | 27 | 3.0 | 6.0 | 0.00 | 0.00 | 0.00 | 82 | 1015.6 |
| 20260830105427 | 70 | 26 | 3.0 | 6.0 | 0.00 | 0.00 | 0.00 | 82 | 1015.4 |
| 20260830104934 | 70 | 25 | 3.0 | 5.0 | 0.00 | 0.00 | 0.00 | 82 | 1015.3 |
| 20260830104439 | 70 | 26 | 3.0 | 5.0 | 0.00 | 0.00 | 0.00 | 82 | 1015.3 |
| 20260830103957 | 70 | 26 | 3.0 | 6.0 | 0.00 | 0.00 | 0.00 | 81 | 1015.2 |
| 20260830103443 | 70 | 24 | 4.0 | 6.0 | 0.00 | 0.00 | 0.00 | 81 | 1015.3 |
| 20260830102925 | 70 | 27 | 2.0 | 5.0 | 0.00 | 0.00 | 0.00 | 80 | 1015.3 |
| 20260830102432 | 70 | 26 | 4.0 | 6.0 | 0.00 | 0.00 | 0.00 | 80 | 1015.3 |
| 20260830101921 | 70 | 25 | 3.0 | 6.0 | 0.00 | 0.00 | 0.00 | 80 | 1015.3 |
| 20260830101433 | 70 | 24 | 3.0 | 5.0 | 0.00 | 0.00 | 0.00 | 79 | 1015.3 |
| 20260830100919 | 71 | 26 | 3.0 | 6.0 | 0.00 | 0.00 | 0.00 | 79 | 1015.2 |
| 20260830100428 | 71 | 22 | 3.0 | 8.0 | 0.00 | 0.00 | 0.00 | 78 | 1015.1 |
| 20260830095919 | 71 | 24 | 4.0 | 11.0 | 0.00 | 0.00 | 0.00 | 77 | 1015.2 |
| 20260830095426 | 71 | 23 | 4.0 | 11.0 | 0.00 | 0.00 | 0.00 | 77 | 1015.2 |
| 20260830094932 | 71 | 26 | 6.0 | 9.0 | 0.00 | 0.00 | 0.00 | 76 | 1015.1 |
| 20260830094450 | 71 | 28 | 4.0 | 8.0 | 0.00 | 0.00 | 0.00 | 76 | 1015.2 |
| 20260830093916 | 71 | 27 | 3.0 | 10.0 | 0.00 | 0.00 | 0.00 | 76 | 1015.1 |
| 20260830093450 | 71 | 28 | 5.0 | 10.0 | 0.00 | 0.00 | 0.00 | 75 | 1015.1 |
| 20260830092951 | 71 | 27 | 3.0 | 6.0 | 0.00 | 0.00 | 0.00 | 75 | 1015.1 |
| 20260830092419 | 71 | 28 | 3.0 | 6.0 | 0.00 | 0.00 | 0.00 | 75 | 1015.2 |
| 20260830091929 | 71 | 28 | 3.0 | 6.0 | 0.00 | 0.00 | 0.00 | 75 | 1015.2 |
| 20260830091421 | 71 | 26 | 4.0 | 6.0 | 0.00 | 0.00 | 0.00 | 75 | 1015.3 |
| 20260830090930 | 71 | 30 | 3.0 | 5.0 | 0.00 | 0.00 | 0.00 | 74 | 1015.2 |
| 20260830090418 | 71 | 30 | 3.0 | 6.0 | 0.00 | 0.00 | 0.00 | 74 | 1015.4 |
| 20260830085929 | 71 | 29 | 3.0 | 6.0 | 0.00 | 0.00 | 0.00 | 74 | 1015.4 |
| 20260830085416 | 71 | 28 | 3.0 | 6.0 | 0.00 | 0.00 | 0.00 | 74 | 1015.5 |
| 20260830084923 | 71 | 28 | 2.0 | 5.0 | 0.00 | 0.00 | 0.00 | 74 | 1015.4 |
| 20260830084450 | 72 | 29 | 3.0 | 5.0 | 0.00 | 0.00 | 0.00 | 73 | 1015.4 |
| 20260830083916 | 72 | 29 | 2.0 | 5.0 | 0.00 | 0.00 | 0.00 | 73 | 1015.4 |
| 20260830083424 | 72 | 26 | 2.0 | 3.0 | 0.00 | 0.00 | 0.00 | 73 | 1015.4 |
| 20260830082933 | 72 | 27 | 1.0 | 3.0 | 0.00 | 0.00 | 0.00 | 72 | 1015.4 |
| 20260830082423 | 72 | 26 | 2.0 | 4.0 | 0.00 | 0.00 | 0.00 | 72 | 1015.4 |
| 20260830081934 | 72 | 24 | 2.0 | 6.0 | 0.00 | 0.00 | 0.00 | 71 | 1015.5 |
| 20260830081423 | 72 | 24 | 2.0 | 8.0 | 0.00 | 0.00 | 0.00 | 71 | 1015.5 |
| 20260830080929 | 72 | 24 | 2.0 | 9.0 | 0.00 | 0.00 | 0.00 | 71 | 1015.4 |
| 20260830080415 | 72 | 25 | 5.0 | 9.0 | 0.00 | 0.00 | 0.00 | 71 | 1015.4 |